Retour au catalogue

BREEZE-M DEB

ActifHEO
NORAD 32035·DEBRIS·🇷🇺 Russia

Lancé Feb 28, 2006 depuis Baikonur Cosmodrome

Loading…

Prochains Passages (prochaines 24 heures)

TLE

FraisSource: Space-Track

Époque: Sep 14, 2026, 06:24 UTC

1 32035U 06006N   26257.26667251  .00006284  00000-0  16447-1 0  9995
2 32035  50.9297 207.7951 4678155  86.1244 324.2203  5.80390944  3145

Suivez BREEZE-M DEB en temps réel avec AllMySat

Download on the App Store